Location: Lombard
(41.8800°N, 88.0080°W)
Time: 04:18:11
(UTC-05:00)

AO-85 - Visible Passes

Search period start: 16 May 2022 00:00
Search period end: 26 May 2022 00:00
Orbit: 497 x 778 km, 64.8° (Epoch: 04 May)

Date Brightness Start Highest point End Pass type
(mag) Time Alt. Az. Time Alt. Az. Time Alt. Az.
16 May ? 21:45:41 10° SSW 21:51:04 75° ESE 21:56:21 10° NE visible
16 May ? 23:27:53 10° W 23:31:56 21° NW 23:35:53 10° N visible
17 May ? 04:38:31 10° N 04:40:25 12° NNE 04:42:14 10° NE visible
17 May ? 20:30:09 10° SSE 20:34:19 23° ESE 20:38:28 10° ENE visible
17 May ? 22:09:05 10° SW 22:14:22 55° NW 22:19:31 10° NNE visible
17 May ? 23:53:30 10° WNW 23:55:48 13° NNW 23:58:03 10° N visible
18 May ? 20:52:08 10° S 20:57:18 49° ESE 21:02:24 10° NE visible
18 May ? 22:33:12 10° WSW 22:37:52 29° NW 22:42:24 10° NNE visible
19 May ? 21:15:04 10° SW 21:20:28 81° WNW 21:25:45 10° NNE visible
19 May ? 22:58:10 10° WNW 23:01:34 17° NW 23:04:55 10° N visible
20 May ? 04:07:19 10° N 04:10:06 15° NE 04:12:45 10° ENE visible
20 May ? 21:38:46 10° WSW 21:43:50 41° NW 21:48:46 10° NNE visible
20 May ? 23:25:12 10° NNW 23:25:31 10° NNW 23:25:49 10° NNW visible
21 May ? 04:29:47 10° NNW 04:33:48 27° NE 04:37:32 10° ESE visible
21 May ? 22:03:12 10° W 22:07:24 23° NW 22:11:29 10° N visible
22 May ? 03:14:22 10° NNE 03:15:50 11° NNE 03:17:15 10° NE visible
22 May ? 20:44:31 10° SW 20:49:50 60° NW 20:55:01 10° NNE visible
22 May ? 22:28:37 10° WNW 22:31:12 13° NW 22:33:42 10° N visible
23 May ? 03:36:15 10° N 03:39:39 19° NE 03:42:51 10° E visible
23 May ? 21:08:31 10° WSW 21:13:16 31° NW 21:17:53 10° NNE visible
24 May ? 03:58:55 10° NNW 04:03:14 37° NE 04:07:11 10° ESE visible
24 May ? 21:33:18 10° W 21:36:54 18° NW 21:40:25 10° N visible
25 May ? 02:42:53 10° N 02:45:24 14° NE 02:47:48 10° ENE visible
25 May ? 04:21:56 10° NNW 04:26:31 84° NE 04:30:42 10° SE visible
25 May ? 21:59:34 10° NW 22:00:46 11° NNW 22:01:56 10° NNW visible
